• Join FlightAware (Why Join?)
  • Login
  • US Flag 
12:38PM EST


 

Airport Tracker/Info


-or-


 

Live Flight TrackerFlight Track Log ✈ N700QA ✈ 12-Sep-2013 ✈ KPHX - KSFO

Flight Track Log - Related Links

Times and Time Zones

All times are in EDT time to prevent confusion due to time zone crossing. See the N700QA flight status page for this flight to view local times or setup timezone preferences in your user account.

Time Position Orientation Groundspeed Altitude Reporting Facility
EDT Latitude Longitude Course Direction KTS MPH feet Rate Location/Type
03:57PM 33.4333 -112.0333 248° West 172 198 2,000  Level Phoenix TRACON
03:58PM 33.4000 -112.1333 248° West 208 239 4,900 1,882 Climbing Phoenix TRACON
03:59PM 33.3667 -112.2333 248° West 277 319 7,300 1,748 Climbing Phoenix TRACON
04:00PM 33.3667 -112.3000 270° West 274 315 8,600 1,645 Climbing Phoenix TRACON
04:01PM 33.3869 -112.4011 284° West 274 315 10,700 1,890 Climbing Los Angeles Center
04:03PM 33.4069 -112.5200 281° West 292 336 13,200 2,061 Climbing Albuquerque Center
04:04PM 33.4189 -112.6128 279° West 299 344 15,200 1,728 Climbing Albuquerque Center
04:05PM 33.4353 -112.7100 281° West 298 343 16,800 1,488 Climbing Albuquerque Center
04:06PM 33.4500 -112.8100 280° West 304 350 18,300 1,537 Climbing Albuquerque Center
04:07PM 33.4728 -112.9333 283° West 314 361 19,900 1,475 Climbing Albuquerque Center
04:08PM 33.4939 -113.0378 284° West 321 369 21,300 1,190 Climbing Albuquerque Center
04:09PM 33.5133 -113.1439 282° West 325 374 22,400 1,056 Climbing Albuquerque Center
04:10PM 33.5344 -113.2503 283° West 329 379 23,500 942 Climbing Albuquerque Center
04:11PM 33.5547 -113.3592 283° West 333 383 24,300 823 Climbing Albuquerque Center
04:12PM 33.5761 -113.4722 283° West 342 394 25,200 919 Climbing Albuquerque Center
04:13PM 33.6017 -113.6092 283° West 351 404 26,200 927 Climbing Albuquerque Center
04:14PM 33.6211 -113.7131 283° West 355 409 27,100 823 Climbing Albuquerque Center
04:15PM 33.6422 -113.8275 283° West 353 406 27,900 927 Climbing Albuquerque Center
04:16PM 33.6692 -113.9664 283° West 355 409 29,000 912 Climbing Albuquerque Center
04:17PM 33.6894 -114.0814 282° West 354 407 29,800 726 Climbing Albuquerque Center
04:18PM 33.7097 -114.1961 282° West 352 405 30,500 778 Climbing Albuquerque Center
04:20PM 33.7536 -114.4350 283° West 350 403 32,200 796 Climbing Albuquerque Center
04:21PM 33.7778 -114.5786 281° West 346 398 33,100 627 Climbing Los Angeles Center
04:22PM 33.7819 -114.6928 273° West 344 396 33,600 435 Climbing Los Angeles Center
04:23PM 33.7861 -114.8081 273° West 346 398 34,000 194 Climbing Los Angeles Center
04:24PM 33.7958 -114.9283 276° West 359 413 34,000 48 Level Los Angeles Center
04:26PM 33.8011 -115.0508 273° West 369 425 34,100 48 Climbing Los Angeles Center
04:27PM 33.8078 -115.1781 274° West 380 437 34,100  Level Los Angeles Center
04:28PM 33.8161 -115.3364 274° West 395 455 34,100 -48 Level Los Angeles Center
04:29PM 33.8272 -115.4681 276° West 399 459 34,000  Descending Los Angeles Center
04:30PM 33.8653 -115.5903 291° West 390 449 34,100 48 Climbing Los Angeles Center
04:31PM 33.9050 -115.7111 292° West 389 448 34,100 -48 Level Los Angeles Center
04:32PM 33.9425 -115.8306 291° West 385 443 34,000  Descending Los Angeles Center
04:33PM 33.9881 -115.9728 291° West 382 440 34,100 48 Climbing Los Angeles Center
04:34PM 34.0264 -116.0914 291° West 381 438 34,100 -48 Level Los Angeles Center
04:35PM 34.0628 -116.2111 290° West 382 440 34,000 -48 Descending Los Angeles Center
04:36PM 34.1006 -116.3306 291° West 382 440 34,000  Level Los Angeles Center
04:37PM 34.1406 -116.4608 290° West 385 443 34,000  Level Los Angeles Center
04:38PM 34.1786 -116.5772 292° West 376 433 34,000  Level Los Angeles Center
04:39PM 34.2153 -116.6983 290° West 382 440 34,000  Level Los Angeles Center
04:40PM 34.2533 -116.8175 291° West 380 437 34,000  Level Los Angeles Center
04:41PM 34.2972 -116.9619 290° West 381 438 34,000  Level Los Angeles Center
04:42PM 34.3339 -117.0811 290° West 379 436 34,000  Level Los Angeles Center
04:43PM 34.3694 -117.1972 290° West 380 437 34,000  Level Los Angeles Center
04:44PM 34.3997 -117.3258 286° West 382 440 34,000  Level Los Angeles Center
04:45PM 34.4094 -117.4558 275° West 386 444 34,000  Level Los Angeles Center
04:46PM 34.4206 -117.5858 276° West 388 447 34,000  Level Los Angeles Center
04:47PM 34.4383 -117.7156 279° West 394 453 34,000  Level Los Angeles Center
04:48PM 34.5053 -117.8481 302° West 386 444 34,000  Level Los Angeles Center
04:49PM 34.5597 -117.9603 301° West 386 444 34,000 387 Level Los Angeles Center
04:50PM 34.6117 -118.0750 299° West 386 444 34,800 726 Climbing Los Angeles Center
04:51PM 34.6633 -118.1825 300° West 373 429 35,500 576 Climbing Los Angeles Center
04:52PM 34.7108 -118.2886 299° West 360 414 36,000 240 Climbing Los Angeles Center
04:53PM 34.7597 -118.3950 299° West 359 413 36,000  Level Los Angeles Center
04:55PM 34.8086 -118.5005 299° West  Level FlightAware Approximate
04:56PM 34.8614 -118.6200 299° West 367 422 36,000  Level Los Angeles Center
04:57PM 34.9200 -118.7458 300° West 361 415 36,000  Level Los Angeles Center
04:58PM 34.9675 -118.8525 299° West 359 413 36,000  Level Los Angeles Center
04:59PM 35.0164 -118.9594 299° West 361 415 36,000  Level Los Angeles Center
05:00PM 35.0647 -119.0664 299° West 361 415 36,000  Level Los Angeles Center
05:01PM 35.1028 -119.1517 299° West 360 414 36,000  Level Los Angeles Center
05:02PM 35.1708 -119.3006 299° West 360 414 36,000  Level Los Angeles Center
05:03PM 35.2186 -119.4072 299° West 360 414 36,000  Level Los Angeles Center
05:04PM 35.2656 -119.5128 299° West 356 410 36,000  Level Los Angeles Center
05:05PM 35.3139 -119.6197 299° West 360 414 36,000  Level Los Angeles Center
05:06PM 35.3611 -119.7269 298° West 360 414 36,000  Level Los Angeles Center
05:07PM 35.4067 -119.8339 298° West 360 414 36,000  Level Los Angeles Center
05:08PM 35.4642 -119.9642 322° Northwest 363 418 36,000  Level Los Angeles Center
05:08PM 35.4759 -119.9888 298° West  Level FlightAware Approximate
05:09PM 35.5111 -120.0697 299° West 358 412 36,000  Level Los Angeles Center
05:10PM 35.5583 -120.1794 298° West 364 419 36,000  Level Los Angeles Center
05:11PM 35.6058 -120.2889 298° West 366 421 36,000  Level Los Angeles Center
05:12PM 35.6614 -120.4178 298° West 366 421 36,000  Level Los Angeles Center
05:13PM 35.6989 -120.5047 298° West 364 419 36,000 -168 Level Oakland Center
05:14PM 35.7456 -120.6150 298° West 366 421 35,700 -585 Descending Oakland Center
05:15PM 35.7469 -120.6253 298° West  Level FlightAware Approximate
05:15PM 35.7950 -120.7292 298° West 376 433 34,800  Level Oakland Center
05:16PM 35.7917 -120.7300 298° West  Level FlightAware Approximate
05:16PM 35.8447 -120.8442 298° West 380 437 33,900  Level Oakland Center
05:17PM 35.8364 -120.8348 298° West  Level FlightAware Approximate
05:17PM 35.8933 -120.9603 297° West 382 440 33,000  Level Oakland Center
05:18PM 35.8796 -120.9406 296° West  Level FlightAware Approximate
05:18PM 35.9425 -121.0764 298° West 384 442 33,000  Level Oakland Center
05:19PM 35.9235 -121.0460 297° West  Level FlightAware Approximate
05:19PM 35.9908 -121.1917 297° West 379 436 32,200  Level Oakland Center
05:20PM 35.9675 -121.1514 297° West  Level FlightAware Approximate
05:20PM 36.0511 -121.3333 298° West 389 448 29,500  Level Oakland Center
05:21PM 36.0114 -121.2570 297° West  Level FlightAware Approximate
05:21PM 36.0975 -121.4458 297° West 372 428 28,000  Level Oakland Center
05:22PM 36.0560 -121.3621 302° West  Level FlightAware Approximate
05:22PM 36.1658 -121.5225 318° Northwest 340 391 26,400  Level Oakland Center
05:23PM 36.1002 -121.4671 302° West  Level FlightAware Approximate
05:23PM 36.2483 -121.5831 329° Northwest 342 394 24,900  Level Oakland Center
05:24PM 36.1440 -121.5727 295° West  Level FlightAware Approximate
05:24PM 36.3300 -121.6456 328° Northwest 344 396 23,600  Level Oakland Center
05:25PM 36.2027 -121.6603 329° Northwest  Level FlightAware Approximate
05:25PM 36.4000 -121.7000 328° Northwest 350 403 23,000  Level Northern Cal TRACON
05:26PM 36.2802 -121.7302 321° Northwest  Level FlightAware Approximate
05:27PM 36.3607 -121.7951 327° Northwest  Level FlightAware Approximate
05:27PM 36.5667 -121.8333 327° Northwest 343 395 21,500  Level Northern Cal TRACON
05:28PM 36.4414 -121.8597 327° Northwest  Level FlightAware Approximate
05:28PM 36.6167 -121.8833 321° Northwest 332 382 21,500  Level Northern Cal TRACON
05:29PM 36.5304 -121.8909 349° North  Level FlightAware Approximate
05:29PM 36.7167 -121.9500 332° Northwest 323 372 18,400  Level Northern Cal TRACON
05:30PM 36.6242 -121.9164 347° North  Level FlightAware Approximate
05:30PM 36.8000 -121.9833 342° North 321 369 16,700  Level Northern Cal TRACON
05:31PM 36.7175 -121.9447 345° North  Level FlightAware Approximate
05:31PM 36.8833 -122.0000 351° North 314 361 14,900  Level Northern Cal TRACON
05:32PM 36.8096 -121.9774 349° North  Level FlightAware Approximate
05:32PM 36.9667 -122.0333 342° North 313 360 12,600  Level Northern Cal TRACON
05:33PM 36.9037 -122.0006 352° North  Level FlightAware Approximate
05:33PM 37.0500 -122.0500 351° North 292 336 11,500  Level Northern Cal TRACON
05:33PM 37.0811 -122.0556 352° North 294 338 11,100 -894 Descending Oakland Center
05:34PM 36.9989 -122.0165 352° North  Level FlightAware Approximate
05:34PM 37.1603 -122.0781 347° North 292 336 10,100  Level Oakland Center
05:35PM 37.0883 -122.0536 352° North  Level FlightAware Approximate
05:35PM 37.2392 -122.0975 349° North 288 331 9,300  Level Oakland Center
05:36PM 37.1833 -122.0714 347° North  Level FlightAware Approximate
05:36PM 37.3114 -122.1131 350° North 268 308 7,300  Level Oakland Center
05:37PM 37.2769 -122.0982 347° North  Level FlightAware Approximate
05:37PM 37.3961 -122.1386 347° North 261 300 5,400  Level Oakland Center
05:38PM 37.3713 -122.1178 349° North  Level FlightAware Approximate
05:39PM 37.4590 -122.1590 322° Northwest  Level FlightAware Approximate
05:39PM 37.4614 -122.1597 346° North 248 285 4,300  Level Oakland Center
05:40PM 37.5237 -122.2482 313° West  Level FlightAware Approximate
05:40PM 37.5125 -122.1878 336° Northwest 221 254 3,300  Level Oakland Center
05:41PM 37.5897 -122.3362 313° West  Level FlightAware Approximate
05:41PM 37.5486 -122.2267 320° Northwest 195 224 2,400  Level Oakland Center
05:42PM 37.6167 -122.3667 322° Northwest  Level FlightAware Approximate
05:42PM 37.5772 -122.2717 309° West 177 204 1,800  Level Oakland Center
05:43PM 37.6191 -122.3752 322° Northwest  Level Estimated
05:43PM 37.5961 -122.3197 296° West 163 188 900  Level Oakland Center
05:44PM 37.6167 -122.3667 322° Northwest  Level FlightAware Approximate
05:44PM 37.6139 -122.3653 296° West 152 175 2,200  Level Oakland Center
05:45PM 37.6191 -122.3752 322° Northwest  Level Estimated
05:45PM 37.6378 -122.4444 291° West 183 211 3,000  Level Oakland Center
05:46PM 37.6167 -122.3667 322° Northwest  Level FlightAware Approximate
05:46PM 37.6572 -122.5147 289° West 200 230 3,500  Level Oakland Center
05:47PM 37.6191 -122.3752 322° Northwest  Level Estimated
05:47PM 37.6128 -122.5369 202° Southwest 221 254 4,500  Level Oakland Center
05:48PM 37.6167 -122.3667 322° Northwest  Level FlightAware Approximate
05:48PM 37.5731 -122.4686 126° Southeast 244 281 5,000  Level Oakland Center
05:49PM 37.6191 -122.3752 322° Northwest  Level Estimated
05:49PM 37.5386 -122.3908 119° Southeast 254 292 5,000  Level Oakland Center
05:50PM 37.6167 -122.3667 322° Northwest  Level FlightAware Approximate
05:50PM 37.5100 -122.3156 116° Southeast 243 280 5,000  Level Oakland Center
05:51PM 37.6191 -122.3752 322° Northwest  Level Estimated
05:51PM 37.4858 -122.2536 116° Southeast 213 245 5,000  Level Oakland Center
05:52PM 37.6167 -122.3667 322° Northwest  Level FlightAware Approximate
05:52PM 37.4633 -122.1761 110° East 203 234 4,600  Level Oakland Center
05:53PM 37.6191 -122.3752 322° Northwest  Level Estimated
05:53PM 37.5039 -122.1381 37° Northeast 189 217 4,100  Level Oakland Center
05:54PM 37.6167 -122.3667 322° Northwest  Level FlightAware Approximate
05:54PM 37.5350 -122.1772 315° West 173 199 3,400  Level Oakland Center
05:55PM 37.6191 -122.3752 322° Northwest  Level Estimated
05:55PM 37.5558 -122.2275 298° West 165 190 2,600  Level Oakland Center
05:56PM 37.6167 -122.3667 322° Northwest  Level FlightAware Approximate
05:56PM 37.5772 -122.2781 298° West 164 189 1,700  Level Oakland Center
05:57PM 37.6191 -122.3752 322° Northwest  Level Estimated
05:57PM 37.5986 -122.3261 299° West 162 186 700  Level Oakland Center
05:58PM 37.6167 -122.3667 322° Northwest  Level FlightAware Approximate
05:58PM 37.6175 -122.3706 298° West 151 174 300  Level Oakland Center